| time (UTC) | temp C | wind direction | speed KPH | gust KPH | rain 1hr cm | rain 24hr cm | rain mn cm | humidity % | barometer mb |
| 20260507142002 | 17 | 298 | 9.7 | 20.9 | 0.00 | 4.45 | 2.67 | 87 | 1013.5 |
| 20260507141002 | 17 | 262 | 4.8 | 16.1 | 0.00 | 4.45 | 2.67 | 87 | 1013.7 |
| 20260507140003 | 17 | 219 | 6.4 | 14.5 | 0.00 | 4.45 | 2.67 | 87 | 1013.6 |
| 20260507110003 | 15 | 325 | 0.0 | 1.6 | 0.76 | 3.96 | 2.18 | 87 | 1011.9 |
| 20260507105003 | 15 | 325 | 0.0 | 3.2 | 0.86 | 3.96 | 2.18 | 87 | 1011.9 |
| 20260507104003 | 15 | 325 | 0.0 | 3.2 | 0.99 | 3.96 | 2.18 | 87 | 1012.4 |
| 20260507103003 | 15 | 325 | 1.6 | 3.2 | 1.04 | 3.96 | 2.18 | 87 | 1012.4 |
| 20260507102003 | 15 | 325 | 1.6 | 19.3 | 0.99 | 3.91 | 2.11 | 87 | 1012.8 |
| 20260507101002 | 15 | 302 | 11.3 | 19.3 | 0.33 | 3.23 | 1.45 | 87 | 1013.7 |
| 20260507100003 | 15 | 272 | 0.0 | 4.8 | 0.33 | 3.20 | 1.42 | 87 | 1011.6 |
| 20260507095003 | 15 | 271 | 0.0 | 0.0 | 0.25 | 3.10 | 1.32 | 87 | 1012.2 |
| 20260507094003 | 15 | 271 | 0.0 | 4.8 | 0.18 | 2.97 | 1.19 | 87 | 1012.6 |
| 20260507093002 | 15 | 271 | 0.0 | 0.0 | 0.15 | 2.92 | 1.14 | 87 | 1012.4 |
| 20260507092003 | 15 | 271 | 0.0 | 0.0 | 0.18 | 2.92 | 1.14 | 87 | 1012.5 |
| 20260507091003 | 15 | 271 | 0.0 | 0.0 | 0.25 | 2.90 | 1.12 | 87 | 1012.1 |
| 20260507090005 | 15 | 271 | 0.0 | 0.0 | 0.28 | 2.87 | 1.07 | 87 | 1012.3 |
| 20260507085003 | 15 | 271 | 0.0 | 0.0 | 0.41 | 2.87 | 1.07 | 87 | 1012.9 |
| 20260507084003 | 15 | 271 | 0.0 | 0.0 | 0.33 | 2.79 | 1.02 | 87 | 1013.0 |
| 20260507083003 | 15 | 271 | 0.0 | 0.0 | 0.38 | 2.77 | 0.99 | 87 | 1012.6 |
| 20260507082003 | 16 | 271 | 0.0 | 0.0 | 0.53 | 2.74 | 0.97 | 87 | 1012.5 |
| 20260507081003 | 16 | 271 | 1.6 | 4.8 | 0.53 | 2.64 | 0.86 | 87 | 1012.6 |
| 20260507080003 | 16 | 271 | 0.0 | 1.6 | 0.53 | 2.59 | 0.79 | 87 | 1012.6 |
| 20260507075003 | 16 | 271 | 0.0 | 4.8 | 0.43 | 2.46 | 0.69 | 87 | 1012.8 |
| 20260507054004 | 16 | 218 | 3.2 | 4.8 | 0.15 | 1.96 | 0.18 | 87 | 1014.9 |
| 20260507053004 | 16 | 218 | 3.2 | 4.8 | 0.15 | 1.93 | 0.15 | 87 | 1014.8 |
| 20260507052003 | 16 | 217 | 0.0 | 4.8 | 0.13 | 1.91 | 0.13 | 87 | 1014.6 |
| 20260507051003 | 16 | 217 | 0.0 | 3.2 | 0.10 | 1.88 | 0.10 | 87 | 1014.8 |
| 20260507050003 | 16 | 217 | 0.0 | 0.0 | 0.10 | 1.88 | 0.10 | 87 | 1015.0 |
| 20260507045003 | 16 | 217 | 0.0 | 0.0 | 0.05 | 1.85 | 0.05 | 87 | 1015.2 |
| 20260507044003 | 16 | 217 | 0.0 | 4.8 | 0.03 | 1.80 | 0.03 | 87 | 1015.3 |
| 20260507043003 | 16 | 217 | 0.0 | 0.0 | 0.03 | 1.78 | 0.00 | 86 | 1015.0 |
| 20260507042003 | 16 | 218 | 0.0 | 0.0 | 0.03 | 1.78 | 0.00 | 86 | 1014.7 |
| 20260507041003 | 16 | 218 | 0.0 | 0.0 | 0.15 | 1.78 | 0.00 | 86 | 1015.0 |
| 20260507040003 | 16 | 218 | 0.0 | 0.0 | 0.28 | 1.78 | 0.00 | 86 | 1014.8 |
| 20260507035003 | 16 | 218 | 0.0 | 0.0 | 0.33 | 1.78 | 1.78 | 86 | 1014.7 |
| 20260507034003 | 16 | 218 | 0.0 | 0.0 | 0.33 | 1.78 | 1.78 | 86 | 1014.8 |
| 20260507033003 | 16 | 218 | 0.0 | 3.2 | 0.38 | 1.75 | 1.75 | 86 | 1014.4 |
| 20260507032003 | 16 | 218 | 1.6 | 4.8 | 0.38 | 1.75 | 1.75 | 86 | 1014.5 |
| 20260507031003 | 16 | 241 | 3.2 | 4.8 | 0.28 | 1.65 | 1.65 | 86 | 1015.2 |
| 20260507030003 | 16 | 242 | 1.6 | 8.0 | 0.15 | 1.52 | 1.52 | 86 | 1015.1 |
| 20260507025003 | 16 | 262 | 0.0 | 4.8 | 0.10 | 1.45 | 1.45 | 86 | 1015.3 |
| 20260507024003 | 16 | 267 | 0.0 | 0.0 | 0.13 | 1.45 | 1.45 | 86 | 1014.8 |
| 20260507012003 | 16 | 267 | 0.0 | 0.0 | 0.41 | 1.27 | 1.27 | 85 | 1015.5 |
| 20260507011003 | 16 | 267 | 0.0 | 0.0 | 0.43 | 1.27 | 1.27 | 85 | 1015.4 |
| 20260507010003 | 17 | 267 | 0.0 | 4.8 | 0.46 | 1.27 | 1.27 | 85 | 1014.9 |
| 20260507005003 | 17 | 265 | 1.6 | 12.9 | 0.86 | 1.22 | 1.22 | 85 | 1015.8 |
| 20260507004003 | 17 | 146 | 3.2 | 11.3 | 0.71 | 1.07 | 1.07 | 85 | 1015.7 |
| 20260507003003 | 17 | 346 | 0.0 | 3.2 | 0.53 | 0.89 | 0.89 | 85 | 1014.8 |
| 20260506232003 | 17 | 296 | 0.0 | 1.6 | 0.10 | 0.38 | 0.38 | 85 | 1013.2 |
| 20260506231003 | 17 | 297 | 0.0 | 1.6 | 0.10 | 0.38 | 0.38 | 85 | 1013.2 |
| 20260506230003 | 17 | 301 | 0.0 | 0.0 | 0.05 | 0.33 | 0.33 | 85 | 1014.0 |
| 20260506225003 | 18 | 301 | 0.0 | 0.0 | 0.13 | 0.33 | 0.33 | 85 | 1014.3 |
| 20260506224003 | 18 | 301 | 0.0 | 1.6 | 0.13 | 0.33 | 0.33 | 85 | 1014.6 |
| 20260506223003 | 18 | 301 | 0.0 | 4.8 | 0.13 | 0.33 | 0.33 | 85 | 1014.6 |
| 20260506212003 | 20 | 292 | 0.0 | 4.8 | 0.00 | 0.20 | 0.20 | 85 | 1013.8 |
| 20260506211003 | 20 | 292 | 3.2 | 4.8 | 0.00 | 0.20 | 0.20 | 85 | 1014.0 |
| 20260506210004 | 20 | 292 | 0.0 | 1.6 | 0.00 | 0.20 | 0.20 | 85 | 1014.0 |
| 20260506205003 | 20 | 291 | 0.0 | 0.0 | 0.00 | 0.20 | 0.20 | 85 | 1014.0 |
| 20260506204003 | 20 | 291 | 0.0 | 0.0 | 0.00 | 0.20 | 0.20 | 85 | 1014.5 |
| 20260506203003 | 20 | 291 | 0.0 | 3.2 | 0.00 | 0.20 | 0.20 | 85 | 1014.8 |
| 20260506160003 | 17 | 217 | 0.0 | 8.0 | 0.13 | 0.20 | 0.20 | 85 | 1015.9 |
| 20260506155003 | 17 | 157 | 1.6 | 4.8 | 0.13 | 0.20 | 0.20 | 85 | 1015.6 |
| 20260506154003 | 17 | 181 | 1.6 | 12.9 | 0.13 | 0.20 | 0.20 | 85 | 1017.5 |
| 20260506153003 | 17 | 202 | 3.2 | 4.8 | 0.05 | 0.15 | 0.15 | 85 | 1017.7 |
| 20260506152004 | 17 | 202 | 1.6 | 4.8 | 0.15 | 0.15 | 0.15 | 85 | 1016.9 |